Location: Marion Hill
(40.7303°N, 80.2959°W)
Time: 17:30:57
(UTC+00:00)

H-2A R/B - Pass Details

Date: 29 October 2020
Orbit: 528 x 653 km, 98.3° (Epoch: 27 November)

Event Time Altitude Azimuth Distance (km) Brightness Sun altitude
Rises 22:46:09 0° 182° (S) 2,916 6.2 -5.5°
Reaches altitude 10° 22:48:24 10° 189° (S) 2,026 5.5 -5.9°
Maximum altitude 22:52:38 43° 261° (W) 907 4.1 -6.7°
Drops below altitude 10° 22:56:57 10° 333° (NNW) 2,068 5.4 -7.5°
Sets 22:59:17 0° 340° (NNW) 2,984 6.2 -7.9°
